TimePDT,TemperatureF,Dew PointF,Humidity,Sea Level PressureIn,VisibilityMPH,Wind Direction,Wind SpeedMPH,Gust SpeedMPH,PrecipitationIn,Events,Conditions,WindDirDegrees,DateUTC
12:53 AM,48.9,46.0,90,30.09,10.0,Calm,Calm,-,N/A,,Clear,0,2013-03-14 07:53:00
1:53 AM,48.0,44.1,86,30.09,10.0,SSE,3.5,-,N/A,,Clear,150,2013-03-14 08:53:00
2:53 AM,46.9,44.1,90,30.09,10.0,Calm,Calm,-,N/A,,Clear,0,2013-03-14 09:53:00
3:53 AM,46.9,44.1,90,30.08,10.0,Calm,Calm,-,N/A,,Clear,0,2013-03-14 10:53:00
4:53 AM,45.0,42.1,90,30.07,10.0,Calm,Calm,-,N/A,,Clear,0,2013-03-14 11:53:00
5:34 AM,44.6,42.8,93,30.09,1.8,Calm,Calm,-,N/A,,Clear,0,2013-03-14 12:34:00
5:50 AM,44.6,42.8,93,30.10,3.0,Calm,Calm,-,N/A,,Clear,0,2013-03-14 12:50:00
5:53 AM,45.0,43.0,93,30.08,2.0,Calm,Calm,-,N/A,,Clear,0,2013-03-14 12:53:00
5:58 AM,44.6,42.8,93,30.10,0.8,Calm,Calm,-,N/A,,Clear,0,2013-03-14 12:58:00
6:12 AM,44.6,42.8,93,30.10,2.5,Calm,Calm,-,N/A,,Clear,0,2013-03-14 13:12:00
6:32 AM,44.6,42.8,93,30.10,10.0,Calm,Calm,-,N/A,,Clear,0,2013-03-14 13:32:00
6:53 AM,45.0,43.0,93,30.09,7.0,Calm,Calm,-,N/A,,Clear,0,2013-03-14 13:53:00
7:53 AM,45.0,42.1,90,30.10,10.0,Calm,Calm,-,N/A,,Mostly Cloudy,0,2013-03-14 14:53:00
8:53 AM,46.9,45.0,93,30.12,10.0,Calm,Calm,-,N/A,Fog,Shallow Fog,0,2013-03-14 15:53:00
9:53 AM,51.1,46.9,86,30.14,10.0,Calm,Calm,-,N/A,,Mostly Cloudy,0,2013-03-14 16:53:00
10:53 AM,55.9,50.0,80,30.14,10.0,Calm,Calm,-,N/A,,Mostly Cloudy,0,2013-03-14 17:53:00
11:53 AM,62.1,50.0,65,30.14,10.0,Calm,Calm,-,N/A,,Mostly Cloudy,0,2013-03-14 18:53:00
12:53 PM,64.9,51.1,61,30.14,10.0,SW,4.6,-,N/A,,Mostly Cloudy,220,2013-03-14 19:53:00
1:53 PM,68.0,51.1,55,30.12,10.0,Variable,3.5,-,N/A,,Mostly Cloudy,0,2013-03-14 20:53:00
2:53 PM,70.0,54.0,57,30.10,10.0,SSE,4.6,-,N/A,,Mostly Cloudy,160,2013-03-14 21:53:00
3:53 PM,73.0,52.0,48,30.09,10.0,SE,5.8,-,N/A,,Mostly Cloudy,140,2013-03-14 22:53:00
4:53 PM,69.1,51.1,53,30.10,10.0,SSE,4.6,-,N/A,,Overcast,150,2013-03-14 23:53:00
5:53 PM,64.9,50.0,58,30.08,10.0,SE,4.6,-,N/A,,Mostly Cloudy,130,2013-03-15 00:53:00
6:53 PM,62.1,48.9,62,30.08,10.0,South,6.9,-,N/A,,Mostly Cloudy,170,2013-03-15 01:53:00
7:53 PM,57.0,46.9,69,30.08,10.0,SSE,5.8,-,N/A,,Clear,150,2013-03-15 02:53:00
8:53 PM,53.1,46.0,77,30.09,10.0,South,4.6,-,N/A,,Clear,180,2013-03-15 03:53:00
9:53 PM,51.1,44.1,77,30.10,10.0,Calm,Calm,-,N/A,,Clear,0,2013-03-15 04:53:00
10:53 PM,48.9,44.1,83,30.11,10.0,Calm,Calm,-,N/A,,Clear,0,2013-03-15 05:53:00
11:53 PM,46.9,43.0,86,30.11,10.0,Calm,Calm,-,N/A,,Clear,0,2013-03-15 06:53:00